Weather History for Bellingham, WA

Change the Weather History Date:

Tuesday, April 24, 2012

  Actual Average Record
Temperature  
Mean Temperature 54 °F 50 °F  
Max Temperature 57 °F 58 °F 73 °F (1989)
Min Temperature 50 °F 41 °F 30 °F (1951)
Degree Days  
Heating Degree Days 12 15  
Month to date heating degree days 408  
Cooling Degree Days 0 0  
Month to date cooling degree days 0  
Year to date cooling degree days 0  
Growing Degree Days 4 (Base 50)    
Moisture  
Dew Point 49 °F    
Average Humidity 88    
Maximum Humidity 94    
Minimum Humidity 72    
Precipitation  
Precipitation 0.42 in 0.08 in 0.92 in (1972)
Month to date precipitation 2.22  
Year to date precipitation 13.13  
Sea Level Pressure  
Sea Level Pressure 29.87 in    
Wind  
Wind Speed 4 mph (SSE)    
Max Wind Speed 23 mph    
Max Gust Speed 31 mph    
Visibility 8 miles    
Events Rain    
T = Trace of Precipitation, MM = Missing Value Source: NWS Daily Summary

Daily Weather History Graph

Daily Weather History Graph

Search for Another Location

Airport:

Trip Planner

Search our weather history database for the weather conditions in past years. The results will help you decide how hot, cold, wet, or windy it might be!

Date:

Astronomy

Apr. 24, 2012 Rise Set
Actual Time 6:01 AM PDT 8:16 PM PDT
Civil Twilight 5:26 AM PDT 8:50 PM PDT
Nautical Twilight 4:43 AM PDT 9:34 PM PDT
Astronomical Twilight 3:54 AM PDT 10:23 PM PDT
Moon 7:47 AM PDT (4/24) 11:53 PM PDT (4/24)
Length of Visible Light 15h 24m
Length of Day
14h 15m
Waxing Crescent, 11% of the Moon is Illuminated
Apr 24
Waxing Crescent
Apr 29
First Quarter
May 5
Full
May 12
Last Quarter
May 20
New

Hourly Weather History & Observations

Time (PDT) Temp. Dew Point Humidity Pressure Visibility Wind Dir Wind Speed Gust Speed Precip Events Conditions
12:53 AM 51.1 °F 48.0 °F 89% 29.87 in 10.0 mi SSE 3.5 mph - N/A   Overcast
1:04 AM 51.8 °F 48.2 °F 88% 29.84 in 10.0 mi South 3.5 mph - N/A   Overcast
1:43 AM 51.8 °F 48.2 °F 88% 29.84 in 10.0 mi SSE 4.6 mph - N/A   Overcast
1:53 AM 52.0 °F 48.0 °F 86% 29.87 in 10.0 mi SSE 4.6 mph - N/A   Overcast
2:53 AM 52.0 °F 48.9 °F 89% 29.86 in 10.0 mi South 3.5 mph - N/A   Overcast
3:23 AM 51.8 °F 48.2 °F 88% 29.84 in 10.0 mi Calm Calm - N/A   Overcast
3:53 AM 53.1 °F 48.0 °F 83% 29.87 in 10.0 mi Calm Calm - N/A   Overcast
4:53 AM 51.1 °F 48.0 °F 89% 29.89 in 10.0 mi Calm Calm - 0.00 in Rain Light Rain
5:53 AM 50.0 °F 48.0 °F 93% 29.88 in 10.0 mi SSW 3.5 mph - 0.04 in Rain Light Rain
6:53 AM 50.0 °F 46.9 °F 89% 29.89 in 10.0 mi Calm Calm - 0.00 in Rain Light Rain
7:53 AM 50.0 °F 48.0 °F 93% 29.90 in 8.0 mi Calm Calm - 0.02 in Rain Light Rain
8:46 AM 50.0 °F 48.2 °F 94% 29.89 in 8.0 mi Calm Calm - 0.03 in Rain Light Rain
8:53 AM 51.1 °F 48.9 °F 92% 29.92 in 7.0 mi Calm Calm - 0.04 in Rain Light Rain
9:01 AM 51.8 °F 48.2 °F 88% 29.90 in 7.0 mi SSW 4.6 mph - 0.00 in Rain Light Rain
9:26 AM 51.8 °F 50.0 °F 94% 29.89 in 4.0 mi South 11.5 mph 17.3 mph 0.01 in Rain Light Rain
9:53 AM 52.0 °F 48.9 °F 89% 29.92 in 7.0 mi SSE 10.4 mph - 0.02 in Rain Light Rain
10:53 AM 51.1 °F 48.0 °F 89% 29.93 in 7.0 mi SSE 8.1 mph - 0.04 in Rain Light Rain
11:00 AM 51.8 °F 48.2 °F 88% 29.90 in 8.0 mi SSE 8.1 mph - 0.00 in Rain Light Rain
11:53 AM 51.1 °F 48.9 °F 92% 29.94 in 4.0 mi SSE 5.8 mph - 0.04 in Rain Light Rain
12:00 PM 51.8 °F 48.2 °F 88% 29.91 in 5.0 mi SSE 8.1 mph - 0.00 in Rain Light Rain
12:21 PM 51.8 °F 48.2 °F 88% 29.91 in 6.0 mi SSE 6.9 mph - 0.02 in Rain Light Rain
12:53 PM 52.0 °F 48.9 °F 89% 29.94 in 5.0 mi SSE 4.6 mph - 0.05 in Rain Light Rain
1:00 PM 51.8 °F 48.2 °F 88% 29.91 in 5.0 mi SSE 4.6 mph - 0.00 in Rain Light Rain
1:07 PM 51.8 °F 48.2 °F 88% 29.91 in 6.0 mi SSE 5.8 mph - 0.01 in Rain Light Rain
1:53 PM 52.0 °F 48.9 °F 89% 29.93 in 8.0 mi Calm Calm - 0.03 in Rain Light Rain
2:53 PM 52.0 °F 50.0 °F 93% 29.92 in 4.0 mi Calm Calm - 0.04 in Rain Light Rain
3:00 PM 51.8 °F 48.2 °F 88% 29.89 in 4.0 mi NNE 3.5 mph - 0.01 in Rain Light Rain
3:53 PM 51.1 °F 48.9 °F 92% 29.89 in 3.0 mi NNE 4.6 mph - 0.08 in Rain Light Rain
4:06 PM 51.8 °F 48.2 °F 88% 29.87 in 3.0 mi NE 3.5 mph - 0.01 in Rain Light Rain
4:42 PM 51.8 °F 48.2 °F 88% 29.86 in 10.0 mi Calm Calm - 0.02 in Rain Light Rain
4:53 PM 52.0 °F 50.0 °F 93% 29.88 in 10.0 mi Variable 3.5 mph - 0.02 in   Overcast
5:23 PM 53.6 °F 50.0 °F 88% 29.84 in 10.0 mi SSE 8.1 mph - N/A   Overcast
5:40 PM 51.8 °F 50.0 °F 94% 29.83 in 3.0 mi SSE 10.4 mph 18.4 mph 0.00 in Rain Light Rain
5:53 PM 52.0 °F 50.0 °F 93% 29.85 in 8.0 mi SSE 9.2 mph - 0.00 in   Overcast
6:17 PM 51.8 °F 50.0 °F 94% 29.82 in 10.0 mi South 10.4 mph - 0.00 in Rain Light Rain
6:53 PM 52.0 °F 48.9 °F 89% 29.82 in 10.0 mi South 5.8 mph - 0.00 in   Overcast
7:53 PM 51.1 °F 48.9 °F 92% 29.80 in 10.0 mi South 4.6 mph - N/A   Overcast
8:53 PM 54.0 °F 50.0 °F 86% 29.79 in 10.0 mi SSE 5.8 mph - N/A   Overcast
9:53 PM 55.9 °F 48.9 °F 77% 29.79 in 10.0 mi SE 6.9 mph - N/A   Overcast
10:53 PM 57.0 °F 48.9 °F 74% 29.77 in 10.0 mi SE 9.2 mph - N/A   Overcast
11:42 PM 57.2 °F 48.2 °F 72% 29.74 in 10.0 mi SSE 13.8 mph 27.6 mph N/A   Mostly Cloudy
11:53 PM 55.9 °F 48.9 °F 77% 29.75 in 10.0 mi SSE 23.0 mph 31.1 mph N/A   Partly Cloudy